GW2656 Weather Reports


time (UTC)temp
F
wind
direction
speed
knots
gust
knots
rain 1hr
in
rain 24hr
in
rain mn
in
humidity
%
barometer
mb
20260509185854 59 320 0.0 0.0 0.00 0.00 0.00 32 1007.8
20260509185350 59 298 0.0 0.9 0.00 0.00 0.00 32 1007.8
20260509184847 59 315 0.9 0.9 0.00 0.00 0.00 32 1007.8
20260509184344 59 358 0.9 0.9 0.00 0.00 0.00 32 1007.7
20260509183841 60 327 0.9 0.9 0.00 0.00 0.00 32 1007.8
20260509183336 60 316 0.9 0.9 0.00 0.00 0.00 32 1007.5
20260509182832 60 317 0.9 1.7 0.00 0.00 0.00 32 1007.7
20260509182330 60 308 0.9 0.9 0.00 0.00 0.00 32 1007.5
20260509181827 60 324 0.9 0.9 0.00 0.00 0.00 32 1007.7
20260509181324 60 304 0.9 0.9 0.00 0.00 0.00 32 1007.7
20260509180822 60 312 0.0 0.9 0.00 0.00 0.00 32 1007.4
20260509180317 61 318 0.0 0.9 0.00 0.00 0.00 32 1007.3
20260509175814 61 339 0.9 1.7 0.00 0.00 0.00 31 1007.3
20260509175311 62 339 0.9 0.9 0.00 0.00 0.00 31 1007.4
20260509174807 62 26 0.9 0.9 0.00 0.00 0.00 31 1007.4
20260509174302 62 322 0.0 0.9 0.00 0.00 0.00 32 1007.3
20260509173758 62 352 0.9 0.9 0.00 0.00 0.00 32 1007.3
20260509173254 62 331 0.9 0.9 0.00 0.00 0.00 32 1007.2
20260509172750 62 334 0.9 0.9 0.00 0.00 0.00 32 1007.4
20260509172247 62 334 0.0 0.9 0.00 0.00 0.00 32 1007.2
20260509171742 63 331 0.0 0.0 0.00 0.00 0.00 31 1007.0
20260509171239 63 329 0.0 0.9 0.00 0.00 0.00 31 1007.0
20260509170736 63 357 0.9 0.9 0.00 0.00 0.00 30 1006.8
20260509170232 64 341 0.0 0.0 0.00 0.00 0.00 30 1006.7
20260509165730 64 329 0.9 0.9 0.00 0.00 0.00 30 1006.8
20260509165225 64 352 0.9 0.9 0.00 0.00 0.00 29 1006.7
20260509164722 64 11 0.9 0.9 0.00 0.00 0.00 30 1006.7
20260509164217 65 335 0.9 0.9 0.00 0.00 0.00 29 1006.7
20260509163715 65 333 0.9 0.9 0.00 0.00 0.00 29 1006.6
20260509163212 66 336 2.6 2.6 0.00 0.00 0.00 28 1006.6
20260509162709 66 336 2.6 2.6 0.00 0.00 0.00 28 1006.7
20260509162204 67 356 2.6 4.3 0.00 0.00 0.00 27 1006.7
20260509161700 67 33 1.7 1.7 0.00 0.00 0.00 27 1006.8
20260509161156 68 12 2.6 4.3 0.00 0.00 0.00 26 1006.7
20260509160652 68 6 2.6 5.2 0.00 0.00 0.00 26 1006.7
20260509160148 69 351 3.5 5.2 0.00 0.00 0.00 26 1006.7
20260509155644 69 40 2.6 4.3 0.00 0.00 0.00 25 1006.6
20260509155140 69 353 4.3 6.1 0.00 0.00 0.00 25 1006.6
20260509154636 70 75 5.2 7.0 0.00 0.00 0.00 25 1006.7
20260509154133 70 5 4.3 6.1 0.00 0.00 0.00 25 1006.7
20260509153630 70 76 2.6 5.2 0.00 0.00 0.00 25 1006.7
20260509153127 70 20 5.2 6.1 0.00 0.00 0.00 24 1006.7
20260509152623 71 101 4.3 6.1 0.00 0.00 0.00 24 1006.6
20260509152120 71 221 4.3 7.0 0.00 0.00 0.00 24 1006.7
20260509151616 71 50 6.1 7.0 0.00 0.00 0.00 23 1006.5
20260509151114 71 5 3.5 5.2 0.00 0.00 0.00 23 1006.4
20260509150612 71 77 6.1 8.7 0.00 0.00 0.00 23 1006.6
20260509150110 71 5 3.5 4.3 0.00 0.00 0.00 23 1006.6
20260509145605 71 28 6.1 7.8 0.00 0.00 0.00 23 1006.6
20260509145101 71 47 6.1 7.8 0.00 0.00 0.00 23 1006.4
20260509144558 71 296 2.6 2.6 0.00 0.00 0.00 23 1006.7
20260509144055 71 311 6.1 8.7 0.00 0.00 0.00 23 1006.6
20260509143552 71 235 7.0 11.3 0.00 0.00 0.00 23 1006.5
20260509143050 71 53 4.3 7.0 0.00 0.00 0.00 23 1006.4
20260509142544 71 102 5.2 6.1 0.00 0.00 0.00 23 1006.6
20260509142041 71 91 3.5 4.3 0.00 0.00 0.00 22 1006.5
20260509141537 71 13 4.3 6.1 0.00 0.00 0.00 22 1006.5
20260509141034 71 29 5.2 6.1 0.00 0.00 0.00 22 1006.8
20260509140531 72 119 6.1 7.0 0.00 0.00 0.00 22 1006.7
20260509140029 72 9 3.5 4.3 0.00 0.00 0.00 22 1006.6
20260509135526 72 275 6.1 7.8 0.00 0.00 0.00 22 1006.8
20260509135023 71 287 3.5 6.1 0.00 0.00 0.00 22 1006.7
20260509134520 71 45 6.1 7.8 0.00 0.00 0.00 22 1006.7
20260509134018 72 89 5.2 6.1 0.00 0.00 0.00 22 1006.7
20260509133514 71 59 6.1 7.8 0.00 0.00 0.00 21 1006.8
20260509133012 72 15 6.1 7.8 0.00 0.00 0.00 21 1006.6
20260509132511 71 60 5.2 6.1 0.00 0.00 0.00 21 1006.7
20260509132008 71 0 7.8 11.3 0.00 0.00 0.00 21 1006.7
20260509131504 72 66 5.2 7.0 0.00 0.00 0.00 21 1006.6
20260509131001 71 79 7.8 8.7 0.00 0.00 0.00 20 1006.7
20260509130456 72 52 5.2 8.7 0.00 0.00 0.00 19 1006.8
20260509125954 72 83 3.5 5.2 0.00 0.00 0.00 17 1006.8
20260509125450 73 173 6.1 7.0 0.00 0.00 0.00 16 1006.7
20260509124946 73 44 3.5 4.3 0.00 0.00 0.00 16 1007.0
20260509124443 71 38 2.6 4.3 0.00 0.00 0.00 16 1007.0
20260509123940 71 105 2.6 5.2 0.00 0.00 0.00 16 1007.1
20260509123438 72 337 3.5 5.2 0.00 0.00 0.00 16 1007.0
20260509122933 71 38 7.8 9.6 0.00 0.00 0.00 15 1007.3
20260509122431 71 23 4.3 6.1 0.00 0.00 0.00 15 1007.3
20260509121927 71 265 5.2 7.0 0.00 0.00 0.00 15 1007.4
20260509121425 71 65 5.2 6.1 0.00 0.00 0.00 15 1007.2
20260509120923 71 105 3.5 5.2 0.00 0.00 0.00 15 1007.5
20260509120420 71 54 4.3 5.2 0.00 0.00 0.00 15 1007.4
20260509115918 71 42 5.2 8.7 0.00 0.00 0.00 15 1007.4
20260509115415 71 92 6.1 7.0 0.00 0.00 0.00 14 1007.9
20260509114912 71 328 4.3 6.1 0.00 0.00 0.00 14 1007.7
20260509114411 71 106 2.6 4.3 0.00 0.00 0.00 14 1007.8
20260509113910 71 184 2.6 2.6 0.00 0.00 0.00 13 1007.8
20260509113407 71 29 7.8 9.6 0.00 0.00 0.00 12 1007.9
20260509112903 70 213 7.0 9.6 0.00 0.00 0.00 12 1007.9
20260509112401 71 103 3.5 6.1 0.00 0.00 0.00 12 1007.8
20260509111858 70 91 2.6 5.2 0.00 0.00 0.00 14 1008.1
20260509111354 70 44 3.5 4.3 0.00 0.00 0.00 15 1008.0
20260509110853 69 327 3.5 4.3 0.00 0.00 0.00 17 1007.9
20260509110348 69 272 5.2 6.1 0.00 0.00 0.00 17 1008.3
20260509105847 68 209 2.6 4.3 0.00 0.00 0.00 16 1008.1
20260509105344 69 29 4.3 6.1 0.00 0.00 0.00 17 1008.0
20260509104841 68 68 3.5 4.3 0.00 0.00 0.00 17 1008.4
20260509104337 68 3 3.5 4.3 0.00 0.00 0.00 18 1008.7
20260509103835 68 55 1.7 2.6 0.00 0.00 0.00 18 1008.8
20260509103332 67 30 5.2 6.1 0.00 0.00 0.00 20 1008.5
20260509102831 67 356 6.1 9.6 0.00 0.00 0.00 20 1008.7
20260509102328 66 347 2.6 2.6 0.00 0.00 0.00 21 1008.7
20260509101824 66 19 2.6 2.6 0.00 0.00 0.00 22 1009.0
20260509101320 66 295 3.5 5.2 0.00 0.00 0.00 22 1009.0
20260509100818 66 310 1.7 2.6 0.00 0.00 0.00 23 1008.8
20260509100315 67 77 2.6 4.3 0.00 0.00 0.00 22 1009.3
20260509095812 66 92 2.6 2.6 0.00 0.00 0.00 23 1009.0
20260509095309 64 49 1.7 2.6 0.00 0.00 0.00 23 1009.1
20260509094806 64 65 2.6 4.3 0.00 0.00 0.00 25 1009.4
20260509094302 64 317 0.9 1.7 0.00 0.00 0.00 24 1009.4
20260509093800 65 26 2.6 2.6 0.00 0.00 0.00 23 1009.5
20260509093257 64 337 2.6 2.6 0.00 0.00 0.00 25 1009.7
20260509092756 64 349 1.7 2.6 0.00 0.00 0.00 25 1009.8
20260509092253 63 74 4.3 6.1 0.00 0.00 0.00 25 1009.5
20260509091751 64 332 1.7 1.7 0.00 0.00 0.00 26 1009.8
20260509091247 63 243 0.9 1.7 0.00 0.00 0.00 26 1009.7
20260509090745 62 103 2.6 6.1 0.00 0.00 0.00 27 1009.8
20260509090242 61 334 0.9 1.7 0.00 0.00 0.00 27 1009.7
20260509085740 62 344 0.9 0.9 0.00 0.00 0.00 28 1009.8
20260509085237 61 32 2.6 2.6 0.00 0.00 0.00 27 1009.8
20260509084733 62 325 0.0 0.9 0.00 0.00 0.00 27 1009.9
20260509084229 62 352 2.6 2.6 0.00 0.00 0.00 25 1010.0
20260509083728 61 323 0.9 0.9 0.00 0.00 0.00 26 1010.0
20260509083224 61 341 1.7 1.7 0.00 0.00 0.00 26 1009.9
20260509082721 60 298 0.9 0.9 0.00 0.00 0.00 25 1010.2
20260509082218 61 340 0.9 0.9 0.00 0.00 0.00 26 1009.9
20260509081714 61 189 2.6 2.6 0.00 0.00 0.00 27 1009.8
20260509081212 60 89 1.7 2.6 0.00 0.00 0.00 28 1009.8
20260509080710 60 8 0.0 0.9 0.00 0.00 0.00 28 1009.9
20260509080208 59 326 0.0 0.9 0.00 0.00 0.00 29 1009.9
20260509075706 60 335 0.0 0.9 0.00 0.00 0.00 27 1009.9
20260509075203 61 318 0.0 0.0 0.00 0.00 0.00 30 1009.7
20260509074700 60 320 0.0 0.0 0.00 0.00 0.00 28 1009.7
20260509074156 60 317 0.0 0.0 0.00 0.00 0.00 30 1009.7
20260509073653 58 322 0.0 0.0 0.00 0.00 0.00 29 1009.7
20260509073149 58 321 0.0 0.0 0.00 0.00 0.00 30 1009.7
20260509072646 57 324 0.0 0.0 0.00 0.00 0.00 31 1009.5
20260509072143 57 322 0.0 0.0 0.00 0.00 0.00 34 1009.4
20260509071640 57 324 0.0 0.0 0.00 0.00 0.00 36 1009.3
20260509071137 56 324 0.9 0.9 0.00 0.00 0.00 37 1009.3
20260509070634 55 323 0.9 0.9 0.00 0.00 0.00 37 1009.4
20260509070130 54 323 0.0 0.0 0.00 0.00 0.00 41 1009.2
20260509065626 53 320 0.9 0.9 0.00 0.00 0.00 40 1009.3
20260509065123 53 333 0.9 0.9 0.00 0.00 0.00 41 1009.1
20260509064620 53 326 0.0 0.9 0.00 0.00 0.00 39 1009.1
20260509064118 53 317 0.0 0.0 0.00 0.00 0.00 38 1009.0
20260509063614 53 323 0.0 0.0 0.00 0.00 0.00 40 1009.0
20260509063111 53 324 0.0 0.0 0.00 0.00 0.00 40 1008.8
20260509062608 53 324 0.0 0.0 0.00 0.00 0.00 38 1008.7
20260509062105 53 321 0.0 0.0 0.00 0.00 0.00 38 1008.7
20260509061602 51 319 0.9 0.9 0.00 0.00 0.00 40 1008.7
20260509061059 50 329 0.9 0.9 0.00 0.00 0.00 42 1008.8
20260509060557 50 325 0.0 0.0 0.00 0.00 0.00 41 1008.7
20260509060052 49 324 0.0 0.0 0.00 0.00 0.00 39 1008.8
20260509055548 48 320 0.0 0.0 0.00 0.00 0.00 44 1008.8
20260509055044 48 325 0.0 0.0 0.00 0.00 0.00 46 1008.6
20260509054541 49 319 0.0 0.9 0.00 0.00 0.00 41 1008.6
20260509054039 48 325 0.0 0.9 0.00 0.00 0.00 40 1008.8
20260509053537 48 324 0.0 0.0 0.00 0.00 0.00 45 1008.5
20260509053034 49 325 0.0 0.0 0.00 0.00 0.00 44 1008.5
20260509052531 50 324 0.0 0.0 0.00 0.00 0.00 39 1008.6
20260509052030 50 320 0.0 0.0 0.00 0.00 0.00 38 1008.6
20260509051527 49 320 0.0 0.0 0.00 0.00 0.00 39 1008.6
20260509051024 50 324 0.0 0.0 0.00 0.00 0.00 42 1008.5
20260509050521 50 322 0.0 0.0 0.00 0.00 0.00 36 1008.3
20260509050017 49 314 0.0 0.9 0.00 0.00 0.00 39 1008.5
20260509045515 49 324 0.0 0.0 0.00 0.00 0.00 40 1008.5
20260509045011 48 322 0.0 0.0 0.00 0.00 0.00 40 1008.1
20260509044509 48 321 0.0 0.0 0.00 0.00 0.00 40 1008.3
20260509044007 47 313 0.9 0.9 0.00 0.00 0.00 47 1008.0
20260509043502 47 325 0.0 0.0 0.00 0.00 0.00 45 1007.9
20260509042957 47 319 0.0 0.0 0.00 0.00 0.00 42 1008.0
20260509042455 48 325 0.0 0.0 0.00 0.00 0.00 45 1008.1
20260509041951 49 323 0.0 0.0 0.00 0.00 0.00 42 1007.9
20260509041448 50 324 0.0 0.0 0.00 0.00 0.00 42 1007.9
20260509040946 50 322 0.0 0.9 0.00 0.00 0.00 37 1007.9
20260509040444 49 321 0.0 0.0 0.00 0.00 0.00 38 1007.7
20260509035940 48 327 0.0 0.0 0.00 0.00 0.00 42 1007.9
20260509035437 48 322 0.0 0.0 0.00 0.00 0.00 39 1007.8
20260509034933 48 324 0.0 0.0 0.00 0.00 0.00 44 1008.1
20260509034431 49 329 0.0 0.0 0.00 0.00 0.00 40 1007.9
20260509033928 49 329 0.0 0.0 0.00 0.00 0.00 40 1007.9
20260509033425 48 319 0.0 0.0 0.00 0.00 0.00 43 1007.7
20260509032922 49 324 0.0 0.0 0.00 0.00 0.00 43 1007.5
20260509032419 49 322 0.0 0.0 0.00 0.00 0.00 40 1007.7
20260509031917 50 325 0.0 0.0 0.00 0.00 0.00 39 1007.5
20260509031414 50 325 0.0 0.0 0.00 0.00 0.00 38 1007.8
20260509030911 50 320 0.0 0.0 0.00 0.00 0.00 36 1007.8
20260509030409 50 319 0.9 0.9 0.00 0.00 0.00 37 1007.7
20260509025906 49 318 0.0 0.0 0.00 0.00 0.00 38 1007.8
20260509025402 48 325 0.0 0.0 0.00 0.00 0.00 43 1007.7
20260509024857 49 324 0.0 0.0 0.00 0.00 0.00 39 1007.7
20260509024353 49 324 0.0 0.0 0.00 0.00 0.00 39 1007.5
20260509023851 48 326 0.0 0.0 0.00 0.00 0.00 39 1007.5
20260509023348 48 322 0.0 0.0 0.00 0.00 0.00 46 1007.7
20260509022844 48 325 0.0 0.0 0.00 0.00 0.00 43 1007.8
20260509022341 48 324 0.0 0.0 0.00 0.00 0.00 42 1007.8
20260509021838 49 322 0.0 0.0 0.00 0.00 0.00 41 1007.7
20260509021335 49 320 0.0 0.0 0.00 0.00 0.00 41 1007.8
20260509020833 50 326 0.0 0.0 0.00 0.00 0.00 38 1007.9
20260509020331 50 321 0.0 0.0 0.00 0.00 0.00 35 1008.0
20260509015823 50 319 0.9 0.9 0.00 0.00 0.00 38 1007.8
20260509015321 48 321 0.0 0.0 0.00 0.00 0.00 41 1008.0
20260509014817 49 323 0.0 0.0 0.00 0.00 0.00 41 1007.7
20260509014314 50 325 0.0 0.0 0.00 0.00 0.00 43 1008.1
20260509013811 51 325 0.0 0.0 0.00 0.00 0.00 39 1007.8
20260509013307 51 320 0.0 0.0 0.00 0.00 0.00 35 1008.0
20260509012803 51 325 0.0 0.0 0.00 0.00 0.00 39 1007.9
20260509012300 51 325 0.0 0.0 0.00 0.00 0.00 36 1008.0
20260509011757 51 320 0.0 0.0 0.00 0.00 0.00 36 1008.0
20260509011254 51 323 0.0 0.0 0.00 0.00 0.00 42 1008.3
20260509010752 51 323 0.0 0.0 0.00 0.00 0.00 34 1008.3
20260509010249 51 320 0.0 0.0 0.00 0.00 0.00 35 1008.4
20260509005746 51 320 0.0 0.0 0.00 0.00 0.00 34 1008.3
20260509005243 51 319 0.0 0.9 0.00 0.00 0.00 34 1008.3
20260509004738 50 313 0.9 1.7 0.00 0.00 0.00 39 1008.4
20260509004235 51 324 0.0 0.0 0.00 0.00 0.00 38 1008.3
20260509003733 50 302 0.9 0.9 0.00 0.00 0.00 38 1008.3
20260509003231 49 318 0.9 0.9 0.00 0.00 0.00 41 1008.3
20260509002728 49 325 0.0 0.0 0.00 0.00 0.00 43 1008.5
20260509002225 50 326 0.0 0.0 0.00 0.00 0.00 42 1008.5
20260509001723 51 320 0.0 0.0 0.00 0.00 0.00 38 1008.6
20260509001218 52 323 0.0 0.0 0.00 0.00 0.00 39 1008.5
20260509000717 53 320 0.0 0.9 0.00 0.00 0.00 33 1008.5
20260509000213 53 324 0.0 0.0 0.00 0.00 0.00 35 1008.6
20260508235710 53 328 0.0 0.0 0.00 0.00 0.00 33 1008.6
20260508235207 53 323 0.0 0.0 0.00 0.00 0.00 32 1008.3
20260508234705 54 324 0.0 0.0 0.00 0.00 0.00 32 1008.5
20260508234200 53 295 1.7 1.7 0.00 0.00 0.00 32 1008.5
20260508233654 53 325 0.0 0.9 0.00 0.00 0.00 33 1008.4
20260508233152 53 325 1.7 1.7 0.00 0.00 0.00 32 1008.6
20260508232649 53 315 0.9 0.9 0.00 0.00 0.00 33 1009.0
20260508232145 53 323 0.9 0.9 0.00 0.00 0.00 33 1009.0
20260508231643 52 325 0.0 0.0 0.00 0.00 0.00 35 1009.0
20260508231140 52 327 0.0 0.0 0.00 0.00 0.00 37 1009.0
20260508230636 51 325 0.9 0.9 0.00 0.00 0.00 36 1009.0
20260508230133 50 324 0.0 0.9 0.00 0.00 0.00 38 1009.0
20260508225631 51 330 0.0 0.9 0.00 0.00 0.00 40 1009.1
20260508225127 51 326 0.0 0.0 0.00 0.00 0.00 40 1009.2
20260508224625 51 329 0.0 0.0 0.00 0.00 0.00 39 1009.1
20260508224122 52 327 0.0 0.0 0.00 0.00 0.00 37 1009.3
20260508223620 52 324 0.0 0.0 0.00 0.00 0.00 34 1009.3
20260508223117 51 319 0.0 0.9 0.00 0.00 0.00 36 1009.2
20260508222614 51 325 0.0 0.0 0.00 0.00 0.00 40 1009.2
20260508222111 52 324 0.0 0.0 0.00 0.00 0.00 40 1009.3
20260508221607 53 323 0.0 0.0 0.00 0.00 0.00 34 1009.2
20260508221103 51 324 0.0 0.0 0.00 0.00 0.00 38 1009.1
20260508220600 52 324 0.0 0.0 0.00 0.00 0.00 38 1009.1
20260508220056 52 325 0.0 0.0 0.00 0.00 0.00 38 1009.3
20260508215553 53 325 0.0 0.0 0.00 0.00 0.00 36 1009.2
20260508215050 55 324 0.0 0.0 0.00 0.00 0.00 29 1009.3
20260508214547 55 322 0.0 0.0 0.00 0.00 0.00 30 1009.2
20260508214043 54 320 0.0 0.9 0.00 0.00 0.00 30 1009.1
20260508213541 54 320 0.9 0.9 0.00 0.00 0.00 31 1009.4
20260508213037 53 323 0.9 0.9 0.00 0.00 0.00 31 1009.4
20260508212533 53 320 0.9 0.9 0.00 0.00 0.00 32 1009.2
20260508212030 54 321 0.9 0.9 0.00 0.00 0.00 32 1009.5
20260508211525 55 329 0.0 0.0 0.00 0.00 0.00 31 1009.4
20260508211022 55 320 0.0 0.9 0.00 0.00 0.00 29 1009.5
20260508210518 55 321 0.0 0.0 0.00 0.00 0.00 29 1009.7
20260508210016 56 307 0.9 0.9 0.00 0.00 0.00 28 1009.7
20260508205513 56 343 0.9 1.7 0.00 0.00 0.00 28 1009.7
20260508205009 56 326 0.0 0.0 0.00 0.00 0.00 30 1009.7
20260508204507 56 326 0.0 0.0 0.00 0.00 0.00 30 1009.4
20260508204002 55 323 0.0 0.9 0.00 0.00 0.00 31 1009.4
20260508203458 54 326 0.0 0.0 0.00 0.00 0.00 32 1009.7
20260508202953 54 323 0.0 0.0 0.00 0.00 0.00 32 1009.7
20260508202451 55 327 0.0 0.0 0.00 0.00 0.00 31 1009.4
20260508201948 55 327 0.0 0.0 0.00 0.00 0.00 31 1009.3
20260508201444 55 325 0.9 0.9 0.00 0.00 0.00 29 1009.5
20260508200941 55 325 0.0 0.0 0.00 0.00 0.00 31 1009.5
20260508200439 56 324 1.7 1.7 0.00 0.00 0.00 30 1009.3
20260508195933 57 281 0.9 0.9 0.00 0.00 0.00 27 1009.3
20260508195431 56 307 1.7 2.6 0.00 0.00 0.00 28 1009.2
20260508194926 56 326 0.0 0.9 0.00 0.00 0.00 29 1009.2
20260508194424 54 280 0.9 1.7 0.00 0.00 0.00 30 1009.5
20260508193921 55 318 0.0 0.9 0.00 0.00 0.00 32 1009.2
20260508193418 55 317 0.0 0.0 0.00 0.00 0.00 33 1009.3
20260508192914 56 325 0.0 0.0 0.00 0.00 0.00 33 1009.4
20260508192411 57 320 0.0 0.0 0.00 0.00 0.00 31 1009.3
20260508191908 58 317 0.0 0.0 0.00 0.00 0.00 29 1009.2
20260508191405 59 323 0.0 0.0 0.00 0.00 0.00 26 1009.3
20260508190856 60 325 0.0 0.0 0.00 0.00 0.00 26 1009.2
20260508190353 61 310 0.0 0.9 0.00 0.00 0.00 25 1009.3